Regional Weather Roundup
Issued by NWS

Home | Current Version | Previous Version | Graphics & Text | Print | Product List | Glossary On
Versions: 1 2 3 4 5 6 7 8 9 10 11 12 13 14 15 16 17 18 19 20 21 22 23 24 25 26 27 28 29 30 31 32 33 34 35 36 37 38 39 40 41 42 43 44 45 46 47 48 49 50
982
ASUS44 KJAN 190010
RWRMS

MISSISSIPPI HOURLY WEATHER ROUNDUP
NATIONAL WEATHER SERVICE JACKSON MS
700 PM CDT SAT APR 18 2015

NOTE: "FAIR: INDICATES FEW OR NO CLOUDS BELOW 12,000 FEET WITH NO
SIGNIFICANT WEATHER AND/OR OBSTRUCTIONS TO VISIBILITY.

MSZ001>002-007>008-010>013-018>021-025>028-034>036-190100-
NORTHWEST MISSISSIPPI

CITY           SKY/WX    TMP DP  RH WIND       PRES   REMARKS
CLARKSDALE       N/A     66  66 100 E6        29.86S
CLEVELAND      MOCLDY    66  66 100 NE8       29.81F
GREENWOOD      CLOUDY    67  63  87 E12       29.83F
6HR MIN TEMP:  67; 6HR MAX TEMP:  70; 6HR PCP:  0.01;

GREENVILLE     CLOUDY    68  65  90 E8        29.80F
6HR MIN TEMP:  68; 6HR MAX TEMP:  69; 6HR PCP: TRACE;

OLIVE BRANCH   CLOUDY    66  66 100 S3        29.86S
OXFORD         FAIR      64  61  88 SE5       29.87F
TUNICA         CLOUDY    68  63  83 SE6       29.86S
$$

MSZ003>006-009-014>017-022>024-029>033-037>039-190100-
NORTHEAST MISSISSIPPI

CITY           SKY/WX    TMP DP  RH WIND       PRES   REMARKS
COLUMBUS AFB   CLOUDY    68  63  84 S7        29.86F
6HR MIN TEMP:  68; 6HR MAX TEMP:  70;

CORINTH        MOCLDY    70  63  78 S3        29.85F
GOLDN TRIANGLE CLOUDY    66  61  82 SE7       29.86F
STARKVILLE     CLOUDY    64  63  94 SE5       29.88R
TUPELO         CLOUDY    68  62  81 S5        29.86S
6HR MIN TEMP:  68; 6HR MAX TEMP:  70;

$$

MSZ040-058-190100-
CENTRAL MISSISSIPPI

CITY           SKY/WX    TMP DP  RH WIND       PRES   REMARKS
JACKSON INTL   LGT RAIN  69  67  93 NE5       29.84S FOG
6HR MIN TEMP:  69; 6HR MAX TEMP:  72; 6HR PCP:  0.09;

JACKSON HAWKNS LGT RAIN  69  66  90 NE3       29.83F
6HR MIN TEMP:  69; 6HR MAX TEMP:  73; 6HR PCP:  0.01;

MERIDIAN KEY   CLOUDY    69  65  86 E5        29.86F
6HR MIN TEMP:  68; 6HR MAX TEMP:  70;

MERIDIAN NAS   CLOUDY    69  64  84 E5        29.88R
6HR MIN TEMP:  69; 6HR MAX TEMP:  71;

RAYMOND        MOCLDY    70  64  83 E8        29.82F
VICKSBURG      LGT RAIN  70  67  90 SE6       29.81F
6HR MIN TEMP:  69; 6HR MAX TEMP:  72; 6HR PCP:  0.10;

$$

MSZ059>079-190100-
SOUTH MISSISSIPPI

CITY           SKY/WX    TMP DP  RH WIND       PRES   REMARKS
BROOKHAVEN       N/A     70  70 100 CALM      29.84S
HATTIESBURG    CLOUDY    74  69  85 S9        29.85R
6HR MIN TEMP:  72; 6HR MAX TEMP:  79; 6HR PCP:  0.01;

MCCOMB         CLOUDY    73  69  87 S13       29.82S
6HR MIN TEMP:  73; 6HR MAX TEMP:  79; 6HR PCP: TRACE;

NATCHEZ        CLOUDY    72  66  83 NW5       29.81S
6HR MIN TEMP:  72; 6HR MAX TEMP:  72;

PINE BELT      CLOUDY    72 N/A N/A SE3       29.85S
6HR MIN TEMP:  66; 6HR MAX TEMP:  73; 6HR PCP:  0.60;

$$

MSZ080>082-190100-
COASTAL MISSISSIPPI

CITY           SKY/WX    TMP DP  RH WIND       PRES   REMARKS
BAY ST LOUIS   LGT RAIN  72  68  88 MISG      29.86F
BILOXI         LGT RAIN  74  73  97 S7        29.86S
6HR MIN TEMP:  74; 6HR MAX TEMP:  76; 6HR PCP:  0.05;

PASCAGOULA     LGT RAIN  73  70  90 S5        29.87S
6HR MIN TEMP:  73; 6HR MAX TEMP:  76; 6HR PCP: TRACE;

GULFPORT       LGT RAIN  73  70  90 S5        29.86S
6HR MIN TEMP:  73; 6HR MAX TEMP:  76; 6HR PCP:  0.04;

$$



USA.gov is the U.S. government's official web portal to all federal, state and local government web resources and services.